|
|
Asteroid 2012 CD18
(Preview)
Orbital elements:
2012 CD18 Earth MOID = 0.0436 AU
Epoch 2012 Mar. 14.0 TT = JDT 2456000.5 MPC
M 8.98113 (2000.0) P Q
n 0.34832373 Peri. 8.33714 -0.84917356 -0.49337144
a 2.0005405 Node 140.23387 +0.46596200 -0.86783925
e 0.4865841 Incl. 17.12816 +0.24856323 -0.05864855
P 2.83 H 24.3 G 0....
|
Blobrana
|
0
|
|
|
|
|
Asteroid 2008 CH70
(Preview)
The 34 - 77 metre wide asteroid 2008 CH70 will make a close pass (33.9 lunar distances, 0.0872 AU), travelling at 9.06 km/second, to the Earth-Moon system on the 1st April, 2012 @ 17:32 UT ±06:51. See more The Lunar Distanc...
|
Blobrana
|
0
|
|
|
|
|
Asteroid 2004 TB10
(Preview)
The 150 - 330 metre wide asteroid 2004 TB10 will make a close pass (37.6 lunar distances, 0.0967 AU), travelling at 12.42 km/second, to the Earth-Moon system on the 5th April, 2012 @ 23:48 UT ±02:42. See more The Lunar Dist...
|
Blobrana
|
0
|
|
|
|
|
Asteroid (323300) 2003 UD22
(Preview)
The 320 - 720 metre wide asteroid 2003 UD22 will make a close pass (66.6 lunar distances, 0.1711 AU), travelling at 12.91 km/second, to the Earth-Moon system on the 6th April, 2012 @ 20:21 UT ±00:01. See more The Lunar Dist...
|
Blobrana
|
0
|
|
|
|
|
Asteroid 2007 HC
(Preview)
The 24 - 53 metre wide asteroid 2007 HC will make a close pass (70.6 lunar distances, 0.1813 AU), travelling at 11.34 km/second, to the Earth-Moon system on the 10th April, 2012 @ 06:57 UT ±07:25. See more The Lunar Distance (...
|
Blobrana
|
0
|
|
|
|
|
Asteroid 2012 CL17
(Preview)
Orbital elements:
2012 CL17 Earth MOID = 0.0062 AU
Epoch 2012 Mar. 14.0 TT = JDT 2456000.5 MPC
M 32.51576 (2000.0) P Q
n 0.38909205 Peri. 81.22451 +0.74423751 -0.66613518
a 1.8582372 Node 320.52305 +0.57871593 +0.67955121
e 0.7042917 Incl. 4.39573 +0.33346424 +0.30736634
P 2.53 H 25.7 G 0...
|
Blobrana
|
0
|
|
|
|
|
Asteroid 2012 AP10
(Preview)
Orbital elements:
2012 AP10 Earth MOID = 0.0040 AU
Epoch 2012 Mar. 14.0 TT = JDT 2456000.5 MPC
M 221.19985 (2000.0) P Q
n 1.13245173 Peri. 213.24497 +0.68894422 +0.72369434
a 0.9115691 Node 100.33738 -0.65575679 +0.64601417
e 0.1084562 Incl. 2.34653 -0.30876998 +0.24275953
P 0.87 H 26.2...
|
Blobrana
|
1
|
|
|
|
|
Asteroid 2012 BC77
(Preview)
Orbital elements:
2012 BC77 Earth MOID = 0.0114 AU
Epoch 2012 Mar. 14.0 TT = JDT 2456000.5 MPC
M 356.50866 (2000.0) P Q
n 0.40192215 Peri. 56.15524 -0.89611150 +0.44220432
a 1.8184782 Node 150.03804 -0.42816751 -0.83881693
e 0.5715425 Incl. 4.35692 -0.11686216 -0.31755551
P 2.45 H 25.1 G...
|
Blobrana
|
1
|
|
|
|
|
Asteroid 2012 CC17
(Preview)
Orbital elements:
2012 CC17 Earth MOID = 0.1115 AU
Epoch 2012 Mar. 14.0 TT = JDT 2456000.5 MPC
M 335.72661 (2000.0) P Q
n 0.45090900 Peri. 235.69582 -0.77457134 +0.62936299
a 1.6842638 Node 343.02410 -0.48628717 -0.65605819
e 0.3938227 Incl. 12.41705 -0.40443049 -0.41652116
P 2.19 H 20....
|
Blobrana
|
0
|
|
|
|
|
Asteroid 2012 CP2
(Preview)
Orbital elements:
2012 CP2 Earth MOID = 0.0880 AU
Epoch 2012 Mar. 14.0 TT = JDT 2456000.5 MPC
M 313.49235 (2000.0) P Q
n 0.43334528 Peri. 129.53453 -0.46629627 +0.87520420
a 1.7294712 Node 112.22074 -0.84831750 -0.40111126
e 0.3932116 Incl. 7.99669 -0.25084897 -0.27042070
P 2.27 H 20.5 G...
|
Blobrana
|
0
|
|
|
|
|
Asteroid 2012 CM2
(Preview)
Orbital elements:
2012 CM2 Earth MOID = 0.0741 AU
Epoch 2012 Mar. 14.0 TT = JDT 2456000.5 MPC
M 145.38225 (2000.0) P Q
n 1.00562742 Peri. 28.96228 +0.99271372 -0.11390499
a 0.9866838 Node 337.47617 +0.08095108 +0.87206847
e 0.2124187 Incl. 5.88970 +0.08925463 +0.47594353
P 0.98 H 24.8 G 0...
|
Blobrana
|
0
|
|
|
|
|
Asteroid 2012 CL2
(Preview)
Orbital elements:
2012 CL2 Earth MOID = 0.3510 AU
Epoch 2012 Mar. 14.0 TT = JDT 2456000.5 MPC
M 46.51899 (2000.0) P Q
n 0.31515580 Peri. 284.49753 +0.22565770 -0.92025822
a 2.1385489 Node 146.56017 +0.95372967 +0.27560934
e 0.4963489 Incl. 35.46041 -0.19869150 +0.27778463
P 3.13 H 18.4 G...
|
Blobrana
|
0
|
|
|
|
|
Asteroid 2012 CK2
(Preview)
Orbital elements:
2012 CK2 Earth MOID = 0.5120 AU
Epoch 2012 Mar. 14.0 TT = JDT 2456000.5 MPC
M 41.60951 (2000.0) P Q
n 0.24626816 Peri. 80.35451 +0.24329292 -0.96922672
a 2.5207544 Node 355.06249 +0.62679255 +0.18662517
e 0.4943573 Incl. 25.84811 +0.74022946 +0.16053230
P 4.00 H 18.8 G 0...
|
Blobrana
|
0
|
|
|
|
|
Asteroid 2012 AT22
(Preview)
Orbital elements:
2012 AT22 Earth MOID = 0.0666 AU
Epoch 2012 Mar. 14.0 TT = JDT 2456000.5 MPC
M 118.67384 (2000.0) P Q
n 0.79734388 Peri. 76.59209 +0.71105886 -0.64476757
a 1.1517873 Node 322.37990 +0.32020614 +0.65207532
e 0.1596154 Incl. 27.35405 +0.62598987 +0.39883900
P 1.24 H 20.3...
|
Blobrana
|
0
|
|
|
|
|
Asteroid 2012 CN2
(Preview)
Orbital elements:
2012 CN2 Earth MOID = 0.0727 AU
Epoch 2012 Mar. 14.0 TT = JDT 2456000.5 MPC
M 28.85903 (2000.0) P Q
n 0.63544132 Peri. 168.02725 -0.62430320 -0.77320573
a 1.3399412 Node 320.45467 +0.70151607 -0.49220073
e 0.2121363 Incl. 10.07205 +0.34368695 -0.39986415
P 1.55 H 25.3 G...
|
Blobrana
|
0
|
|
|